Time,TemperatureF,DewpointF,PressureIn,WindDirection,WindDirectionDegrees,WindSpeedMPH,WindSpeedGustMPH,Humidity,HourlyPrecipIn,Conditions,Clouds,dailyrainin,SolarRadiationWatts/m^2,SoftwareType,DateUTC
2013-01-11 00:00:00,33.6,31.5,29.07,South,171,7.0,11.0,92,0.04,,,0.07,0.0,meteohub,2013-01-11 06:00:00,
2013-01-11 00:05:00,33.6,31.5,29.07,SSE,164,5.0,11.0,92,0.04,,,0.07,0.0,meteohub,2013-01-11 06:05:00,
2013-01-11 00:10:00,33.6,31.5,29.07,SE,142,2.0,11.0,92,0.04,,,0.07,0.0,meteohub,2013-01-11 06:10:00,
2013-01-11 00:15:00,33.8,31.6,29.07,South,182,5.0,11.0,92,0.04,,,0.07,0.0,meteohub,2013-01-11 06:15:00,
2013-01-11 00:20:00,33.8,32.0,29.07,South,169,4.0,10.0,93,0.04,,,0.07,0.0,meteohub,2013-01-11 06:20:00,
2013-01-11 00:25:00,33.8,32.0,29.06,South,186,5.0,10.0,93,0.04,,,0.07,0.0,meteohub,2013-01-11 06:25:00,
2013-01-11 00:30:00,34.0,32.2,29.06,South,184,2.0,10.0,93,0.04,,,0.08,0.0,meteohub,2013-01-11 06:30:00,
2013-01-11 00:35:00,34.0,32.2,29.05,South,180,7.0,10.0,93,0.03,,,0.08,0.0,meteohub,2013-01-11 06:35:00,
2013-01-11 00:40:00,34.0,32.2,29.05,SSE,154,6.0,10.0,93,0.03,,,0.08,0.0,meteohub,2013-01-11 06:40:00,
2013-01-11 00:45:00,34.2,32.4,29.05,SSE,148,10.0,10.0,93,0.03,,,0.08,0.0,meteohub,2013-01-11 06:45:00,
2013-01-11 00:50:00,34.2,32.4,29.04,SSE,168,4.0,10.0,93,0.03,,,0.08,0.0,meteohub,2013-01-11 06:50:00,
2013-01-11 00:55:00,34.2,32.4,29.05,South,180,6.0,13.0,93,0.02,,,0.08,0.0,meteohub,2013-01-11 06:55:00,
2013-01-11 01:00:00,34.2,32.4,29.05,SSE,160,6.0,13.0,93,0.02,,,0.08,0.0,meteohub,2013-01-11 07:00:00,
2013-01-11 01:05:00,34.2,32.4,29.04,South,173,6.0,13.0,93,0.02,,,0.08,0.0,meteohub,2013-01-11 07:05:00,
2013-01-11 01:10:00,34.0,32.2,29.04,South,176,5.0,13.0,93,0.02,,,0.08,0.0,meteohub,2013-01-11 07:10:00,
2013-01-11 01:15:00,34.2,32.4,29.03,SW,217,7.0,12.0,93,0.02,,,0.08,0.0,meteohub,2013-01-11 07:15:00,
2013-01-11 01:20:00,34.0,32.4,29.03,South,182,5.0,12.0,94,0.01,,,0.09,0.0,meteohub,2013-01-11 07:20:00,
2013-01-11 01:25:00,34.0,32.4,29.03,SSW,196,4.0,12.0,94,0.01,,,0.09,0.0,meteohub,2013-01-11 07:25:00,
2013-01-11 01:30:00,34.0,32.4,29.03,South,175,6.0,13.0,94,0.01,,,0.09,0.0,meteohub,2013-01-11 07:30:00,
2013-01-11 01:35:00,34.0,32.4,29.03,South,177,10.0,13.0,94,0.01,,,0.09,0.0,meteohub,2013-01-11 07:35:00,
2013-01-11 01:40:00,34.0,32.4,29.03,WSW,238,3.0,12.0,94,0.01,,,0.09,0.0,meteohub,2013-01-11 07:40:00,
2013-01-11 01:45:00,34.0,32.4,29.03,South,186,1.0,12.0,94,0.01,,,0.09,0.0,meteohub,2013-01-11 07:45:00,
2013-01-11 01:50:00,34.2,32.5,29.03,South,175,6.0,11.0,94,0.01,,,0.09,0.0,meteohub,2013-01-11 07:50:00,
2013-01-11 01:55:00,34.2,32.5,29.03,South,178,6.0,11.0,94,0.01,,,0.09,0.0,meteohub,2013-01-11 07:55:00,
2013-01-11 02:00:00,34.2,32.5,29.03,SW,215,4.0,11.0,94,0.02,,,0.09,0.0,meteohub,2013-01-11 08:00:00,
2013-01-11 02:05:00,34.2,32.5,29.03,South,170,6.0,11.0,94,0.02,,,0.09,0.0,meteohub,2013-01-11 08:05:00,
2013-01-11 02:11:00,34.2,32.4,29.03,SSW,205,0.0,11.0,93,0.02,,,0.09,0.0,meteohub,2013-01-11 08:11:00,
2013-01-11 02:16:00,34.2,32.4,29.03,SW,214,1.0,10.0,93,0.03,,,0.11,0.0,meteohub,2013-01-11 08:16:00,
2013-01-11 02:21:00,34.2,32.4,29.03,SSW,196,2.0,10.0,93,0.03,,,0.11,0.0,meteohub,2013-01-11 08:21:00,
2013-01-11 02:26:00,34.2,32.4,29.03,South,188,3.0,10.0,93,0.03,,,0.12,0.0,meteohub,2013-01-11 08:26:00,
2013-01-11 02:31:00,34.2,32.4,29.03,South,178,1.0,10.0,93,0.04,,,0.12,0.0,meteohub,2013-01-11 08:31:00,
2013-01-11 02:36:00,34.0,32.4,29.03,SSW,197,0.0,10.0,94,0.04,,,0.12,0.0,meteohub,2013-01-11 08:36:00,
2013-01-11 02:41:00,34.0,32.4,29.03,SSW,194,5.0,6.0,94,0.05,,,0.14,0.0,meteohub,2013-01-11 08:41:00,
2013-01-11 02:46:00,34.0,32.4,29.03,SSW,204,3.0,6.0,94,0.05,,,0.14,0.0,meteohub,2013-01-11 08:46:00,
2013-01-11 02:51:00,34.2,32.5,29.03,SW,216,0.0,6.0,94,0.05,,,0.14,0.0,meteohub,2013-01-11 08:51:00,
2013-01-11 02:56:00,34.2,32.5,29.03,WSW,238,4.0,6.0,94,0.05,,,0.14,0.0,meteohub,2013-01-11 08:56:00,
2013-01-11 03:01:00,34.0,32.4,29.03,SSW,213,6.0,9.0,94,0.04,,,0.14,0.0,meteohub,2013-01-11 09:01:00,
2013-01-11 03:06:00,34.0,32.4,29.03,SSW,205,2.0,9.0,94,0.04,,,0.14,0.0,meteohub,2013-01-11 09:06:00,
2013-01-11 03:11:00,34.0,32.4,29.02,SSW,203,0.0,9.0,94,0.04,,,0.14,0.0,meteohub,2013-01-11 09:11:00,
2013-01-11 03:16:00,34.0,32.4,29.02,SW,227,1.0,8.0,94,0.03,,,0.14,0.0,meteohub,2013-01-11 09:16:00,
2013-01-11 03:21:00,33.8,32.2,29.02,WSW,252,0.0,8.0,94,0.03,,,0.15,0.0,meteohub,2013-01-11 09:21:00,
2013-01-11 03:26:00,34.0,32.4,29.01,WSW,252,0.0,8.0,94,0.03,,,0.15,0.0,meteohub,2013-01-11 09:26:00,
2013-01-11 03:31:00,34.0,32.4,29.01,WSW,239,0.0,6.0,94,0.02,,,0.15,0.0,meteohub,2013-01-11 09:31:00,
2013-01-11 03:36:00,33.8,32.2,29.01,SSW,210,1.0,6.0,94,0.02,,,0.15,0.0,meteohub,2013-01-11 09:36:00,
2013-01-11 03:41:00,33.8,32.5,29.01,SSW,210,0.0,5.0,95,0.02,,,0.15,0.0,meteohub,2013-01-11 09:41:00,
2013-01-11 03:46:00,33.8,32.5,29.00,SSW,210,0.0,5.0,95,0.02,,,0.15,0.0,meteohub,2013-01-11 09:46:00,
2013-01-11 03:51:00,33.6,32.4,29.00,SSW,210,0.0,3.0,95,0.02,,,0.16,0.0,meteohub,2013-01-11 09:51:00,
2013-01-11 03:56:00,33.6,32.4,29.00,SSW,210,0.0,3.0,95,0.02,,,0.16,0.0,meteohub,2013-01-11 09:56:00,
2013-01-11 04:01:00,33.4,32.2,29.00,SSW,210,0.0,3.0,95,0.02,,,0.16,0.0,meteohub,2013-01-11 10:01:00,
2013-01-11 04:06:00,33.4,32.2,29.00,SSW,210,0.0,3.0,95,0.02,,,0.16,0.0,meteohub,2013-01-11 10:06:00,
2013-01-11 04:11:00,33.4,32.2,28.99,SSW,210,1.0,3.0,95,0.02,,,0.16,0.0,meteohub,2013-01-11 10:11:00,
2013-01-11 04:16:00,33.4,32.2,28.99,SSW,210,0.0,2.0,95,0.02,,,0.16,0.0,meteohub,2013-01-11 10:16:00,
2013-01-11 04:21:00,33.4,32.2,28.99,SSW,197,1.0,2.0,95,0.02,,,0.16,0.0,meteohub,2013-01-11 10:21:00,
2013-01-11 04:26:00,33.4,32.2,28.98,South,185,0.0,2.0,95,0.01,,,0.16,0.0,meteohub,2013-01-11 10:26:00,
2013-01-11 04:31:00,33.4,32.2,28.98,South,171,1.0,2.0,95,0.01,,,0.16,0.0,meteohub,2013-01-11 10:31:00,
2013-01-11 04:36:00,33.4,32.2,28.97,SSE,163,2.0,2.0,95,0.01,,,0.16,0.0,meteohub,2013-01-11 10:36:00,
2013-01-11 04:41:00,33.4,32.2,28.97,SSE,163,2.0,5.0,95,0.00,,,0.16,0.0,meteohub,2013-01-11 10:41:00,
2013-01-11 04:46:00,33.3,32.0,28.97,South,170,1.0,5.0,95,0.00,,,0.16,0.0,meteohub,2013-01-11 10:46:00,
2013-01-11 04:51:00,33.3,32.0,28.97,South,182,0.0,5.0,95,0.00,,,0.16,0.0,meteohub,2013-01-11 10:51:00,
2013-01-11 04:56:00,33.3,32.2,28.97,South,180,0.0,6.0,96,0.00,,,0.16,0.0,meteohub,2013-01-11 10:56:00,
2013-01-11 05:01:00,33.3,32.2,28.96,South,180,0.0,6.0,96,0.00,,,0.16,0.0,meteohub,2013-01-11 11:01:00,
2013-01-11 05:06:00,33.3,32.2,28.97,SSW,211,0.0,6.0,96,0.00,,,0.16,0.0,meteohub,2013-01-11 11:06:00,
2013-01-11 05:11:00,33.3,32.2,28.96,SSW,211,0.0,6.0,96,0.00,,,0.16,0.0,meteohub,2013-01-11 11:11:00,
2013-01-11 05:16:00,33.4,32.4,28.96,SSW,211,0.0,6.0,96,0.00,,,0.16,0.0,meteohub,2013-01-11 11:16:00,
2013-01-11 05:21:00,33.4,32.4,28.96,SSW,209,0.0,6.0,96,0.00,,,0.16,0.0,meteohub,2013-01-11 11:21:00,
2013-01-11 05:26:00,33.4,32.4,28.97,SSW,209,0.0,6.0,96,0.00,,,0.16,0.0,meteohub,2013-01-11 11:26:00,
2013-01-11 05:31:00,33.4,32.4,28.96,SSW,197,0.0,6.0,96,0.00,,,0.16,0.0,meteohub,2013-01-11 11:31:00,
2013-01-11 05:36:00,33.4,32.4,28.96,SSW,197,0.0,3.0,96,0.00,,,0.16,0.0,meteohub,2013-01-11 11:36:00,
2013-01-11 05:41:00,33.3,32.2,28.95,SSW,197,0.0,3.0,96,0.00,,,0.16,0.0,meteohub,2013-01-11 11:41:00,
2013-01-11 05:46:00,33.3,32.2,28.95,SSE,167,1.0,3.0,96,0.00,,,0.16,0.0,meteohub,2013-01-11 11:46:00,
2013-01-11 05:51:00,33.3,32.2,28.95,SSE,162,2.0,5.0,96,0.01,,,0.16,0.0,meteohub,2013-01-11 11:51:00,
2013-01-11 05:56:00,33.3,32.2,28.95,SSE,162,3.0,5.0,96,0.01,,,0.16,0.0,meteohub,2013-01-11 11:56:00,
2013-01-11 06:01:00,33.3,32.2,28.95,SSE,162,0.0,5.0,96,0.01,,,0.17,0.0,meteohub,2013-01-11 12:01:00,
2013-01-11 06:06:00,33.3,32.2,28.95,SSE,162,0.0,5.0,96,0.01,,,0.17,0.0,meteohub,2013-01-11 12:06:00,
2013-01-11 06:11:00,33.3,32.2,28.95,SSE,162,0.0,5.0,96,0.01,,,0.17,0.0,meteohub,2013-01-11 12:11:00,
2013-01-11 06:16:00,33.4,32.4,28.95,SSE,162,2.0,5.0,96,0.01,,,0.17,0.0,meteohub,2013-01-11 12:16:00,
2013-01-11 06:22:00,33.3,32.2,28.95,SSE,162,0.0,5.0,96,0.01,,,0.17,0.0,meteohub,2013-01-11 12:22:00,
2013-01-11 06:27:00,33.3,32.2,28.95,SSE,162,0.0,4.0,96,0.01,,,0.17,0.0,meteohub,2013-01-11 12:27:00,
2013-01-11 06:32:00,33.3,32.2,28.95,SSE,162,4.0,4.0,96,0.01,,,0.17,0.0,meteohub,2013-01-11 12:32:00,
2013-01-11 06:37:00,33.4,32.4,28.95,SSE,162,1.0,4.0,96,0.01,,,0.17,0.0,meteohub,2013-01-11 12:37:00,
2013-01-11 06:42:00,33.4,32.4,28.95,SSE,162,0.0,4.0,96,0.01,,,0.17,0.0,meteohub,2013-01-11 12:42:00,
2013-01-11 06:47:00,33.4,32.4,28.95,SSE,162,0.0,4.0,96,0.01,,,0.17,0.0,meteohub,2013-01-11 12:47:00,
2013-01-11 06:52:00,33.6,32.5,28.95,SSE,162,0.0,4.0,96,0.00,,,0.17,0.0,meteohub,2013-01-11 12:52:00,
2013-01-11 06:57:00,33.6,32.5,28.95,SSE,162,0.0,4.0,96,0.00,,,0.17,0.0,meteohub,2013-01-11 12:57:00,
2013-01-11 07:02:00,33.4,32.4,28.95,SSE,162,0.0,4.0,96,0.00,,,0.17,0.0,meteohub,2013-01-11 13:02:00,
2013-01-11 07:07:00,33.4,32.4,28.95,SSE,162,0.0,4.0,96,0.00,,,0.17,0.0,meteohub,2013-01-11 13:07:00,
2013-01-11 07:12:00,33.4,32.4,28.94,SSE,162,0.0,4.0,96,0.00,,,0.19,0.0,meteohub,2013-01-11 13:12:00,
2013-01-11 07:17:00,33.3,32.2,28.94,SSE,162,0.0,4.0,96,0.00,,,0.19,0.0,meteohub,2013-01-11 13:17:00,
2013-01-11 07:22:00,33.4,32.4,28.95,SSE,162,0.0,2.0,96,0.02,,,0.19,0.0,meteohub,2013-01-11 13:22:00,
2013-01-11 07:27:00,33.3,32.2,28.94,SSE,162,0.0,2.0,96,0.02,,,0.19,0.0,meteohub,2013-01-11 13:27:00,
2013-01-11 07:32:00,33.3,32.2,28.93,SSE,162,0.0,2.0,96,0.02,,,0.19,0.0,meteohub,2013-01-11 13:32:00,
2013-01-11 07:37:00,33.3,32.2,28.94,SSE,162,0.0,2.0,96,0.02,,,0.19,0.0,meteohub,2013-01-11 13:37:00,
2013-01-11 07:42:00,33.3,32.2,28.94,SSE,162,0.0,2.0,96,0.02,,,0.19,0.0,meteohub,2013-01-11 13:42:00,
2013-01-11 07:47:00,33.1,32.0,28.94,SSE,162,1.0,2.0,96,0.02,,,0.19,0.0,meteohub,2013-01-11 13:47:00,
2013-01-11 07:52:00,33.3,32.2,28.94,SSE,162,0.0,3.0,96,0.03,,,0.19,0.0,meteohub,2013-01-11 13:52:00,
2013-01-11 07:57:00,33.4,32.4,28.94,SSE,162,0.0,3.0,96,0.03,,,0.19,0.0,meteohub,2013-01-11 13:57:00,
2013-01-11 08:02:00,33.4,32.4,28.94,SSE,162,0.0,3.0,96,0.03,,,0.19,0.0,meteohub,2013-01-11 14:02:00,
2013-01-11 08:07:00,33.4,32.4,28.94,SSE,162,0.0,3.0,96,0.03,,,0.20,0.0,meteohub,2013-01-11 14:07:00,
2013-01-11 08:12:00,33.4,32.4,28.94,SSE,162,0.0,3.0,96,0.01,,,0.20,0.0,meteohub,2013-01-11 14:12:00,
2013-01-11 08:17:00,33.4,32.4,28.94,SSE,162,1.0,1.0,96,0.01,,,0.20,0.0,meteohub,2013-01-11 14:17:00,
2013-01-11 08:22:00,33.4,32.4,28.94,SSE,162,0.0,1.0,96,0.01,,,0.20,0.0,meteohub,2013-01-11 14:22:00,
2013-01-11 08:27:00,33.4,32.4,28.93,SSE,162,0.0,1.0,96,0.01,,,0.20,0.0,meteohub,2013-01-11 14:27:00,
2013-01-11 08:32:00,33.4,32.4,28.93,SSE,162,0.0,1.0,96,0.01,,,0.20,5.0,meteohub,2013-01-11 14:32:00,
2013-01-11 08:37:00,33.4,32.4,28.93,SSE,162,0.0,3.0,96,0.01,,,0.20,7.0,meteohub,2013-01-11 14:37:00,
2013-01-11 08:42:00,33.4,32.4,28.93,SSE,162,1.0,3.0,96,0.01,,,0.20,9.0,meteohub,2013-01-11 14:42:00,
2013-01-11 08:47:00,33.4,32.4,28.93,SSE,162,1.0,3.0,96,0.01,,,0.20,7.0,meteohub,2013-01-11 14:47:00,
2013-01-11 08:52:00,33.4,32.4,28.93,SSE,162,0.0,3.0,96,0.00,,,0.20,9.0,meteohub,2013-01-11 14:52:00,
2013-01-11 08:57:00,33.4,32.4,28.94,SSE,162,0.0,4.0,96,0.00,,,0.20,7.0,meteohub,2013-01-11 14:57:00,
2013-01-11 09:02:00,33.4,32.4,28.93,SSE,162,0.0,4.0,96,0.00,,,0.20,14.0,meteohub,2013-01-11 15:02:00,
2013-01-11 09:07:00,33.4,32.4,28.93,SSE,162,0.0,4.0,96,0.00,,,0.20,18.0,meteohub,2013-01-11 15:07:00,
2013-01-11 09:12:00,33.6,32.5,28.93,SSE,162,0.0,2.0,96,0.00,,,0.20,18.0,meteohub,2013-01-11 15:12:00,
2013-01-11 09:17:00,33.4,32.4,28.93,SSE,162,0.0,2.0,96,0.00,,,0.20,21.0,meteohub,2013-01-11 15:17:00,
2013-01-11 09:22:00,33.4,32.4,28.93,SSE,162,0.0,2.0,96,0.00,,,0.20,23.0,meteohub,2013-01-11 15:22:00,
2013-01-11 09:27:00,33.6,32.5,28.93,SSE,162,0.0,2.0,96,0.00,,,0.20,21.0,meteohub,2013-01-11 15:27:00,
2013-01-11 09:32:00,33.8,32.7,28.93,SSE,162,0.0,2.0,96,0.00,,,0.20,28.0,meteohub,2013-01-11 15:32:00,
2013-01-11 09:37:00,34.0,32.9,28.94,SSE,162,0.0,2.0,96,0.00,,,0.20,26.0,meteohub,2013-01-11 15:37:00,
2013-01-11 09:42:00,34.0,32.9,28.93,SSE,162,0.0,2.0,96,0.00,,,0.20,32.0,meteohub,2013-01-11 15:42:00,
2013-01-11 09:47:00,34.0,32.9,28.93,SSE,162,0.0,2.0,96,0.00,,,0.20,28.0,meteohub,2013-01-11 15:47:00,
2013-01-11 09:52:00,34.0,32.9,28.93,SSE,162,0.0,0.0,96,0.00,,,0.20,30.0,meteohub,2013-01-11 15:52:00,
2013-01-11 09:57:00,34.0,32.9,28.93,SSE,162,0.0,0.0,96,0.00,,,0.20,30.0,meteohub,2013-01-11 15:57:00,
2013-01-11 10:02:00,34.0,32.9,28.93,SSE,162,0.0,0.0,96,0.00,,,0.20,30.0,meteohub,2013-01-11 16:02:00,
2013-01-11 10:07:00,34.0,32.9,28.93,SSE,162,0.0,0.0,96,0.00,,,0.20,26.0,meteohub,2013-01-11 16:07:00,
2013-01-11 10:12:00,34.0,32.9,28.93,SSE,162,0.0,1.0,96,0.00,,,0.20,28.0,meteohub,2013-01-11 16:12:00,
2013-01-11 10:17:00,34.0,32.9,28.93,SSE,162,0.0,1.0,96,0.00,,,0.20,33.0,meteohub,2013-01-11 16:17:00,
2013-01-11 10:22:00,34.2,33.1,28.92,SSE,162,0.0,1.0,96,0.00,,,0.20,47.0,meteohub,2013-01-11 16:22:00,
2013-01-11 10:27:00,34.2,33.1,28.92,SSE,162,0.0,1.0,96,0.00,,,0.20,60.0,meteohub,2013-01-11 16:27:00,
2013-01-11 10:32:00,34.3,33.3,28.92,SSE,162,1.0,2.0,96,0.00,,,0.20,67.0,meteohub,2013-01-11 16:32:00,
2013-01-11 10:37:00,34.3,33.3,28.92,ESE,114,0.0,2.0,96,0.00,,,0.20,62.0,meteohub,2013-01-11 16:37:00,
2013-01-11 10:42:00,34.3,33.3,28.92,ESE,115,0.0,2.0,96,0.00,,,0.20,51.0,meteohub,2013-01-11 16:42:00,
2013-01-11 10:47:00,34.3,33.3,28.92,ESE,117,1.0,2.0,96,0.00,,,0.20,40.0,meteohub,2013-01-11 16:47:00,
2013-01-11 10:52:00,34.5,33.4,28.92,ESE,117,0.0,5.0,96,0.00,,,0.20,40.0,meteohub,2013-01-11 16:52:00,
2013-01-11 10:57:00,34.5,33.4,28.91,ESE,117,1.0,5.0,96,0.00,,,0.20,42.0,meteohub,2013-01-11 16:57:00,
2013-01-11 11:02:00,34.5,33.4,28.91,ESE,117,0.0,5.0,96,0.00,,,0.20,51.0,meteohub,2013-01-11 17:02:00,
2013-01-11 11:07:00,34.7,33.6,28.91,SE,134,4.0,5.0,96,0.00,,,0.20,46.0,meteohub,2013-01-11 17:07:00,
2013-01-11 11:12:00,34.5,33.4,28.91,SE,134,0.0,5.0,96,0.00,,,0.20,46.0,meteohub,2013-01-11 17:12:00,
2013-01-11 11:17:00,34.5,33.4,28.91,SE,136,2.0,5.0,96,0.00,,,0.20,46.0,meteohub,2013-01-11 17:17:00,
2013-01-11 11:22:00,34.7,33.6,28.90,SE,136,1.0,5.0,96,0.00,,,0.20,47.0,meteohub,2013-01-11 17:22:00,
2013-01-11 11:27:00,34.9,33.8,28.90,SE,136,1.0,5.0,96,0.00,,,0.20,49.0,meteohub,2013-01-11 17:27:00,
2013-01-11 11:32:00,34.7,33.6,28.91,SE,142,0.0,4.0,96,0.00,,,0.20,44.0,meteohub,2013-01-11 17:32:00,
2013-01-11 11:37:00,34.9,33.8,28.91,SE,142,0.0,4.0,96,0.00,,,0.20,42.0,meteohub,2013-01-11 17:37:00,
2013-01-11 11:42:00,34.9,33.8,28.91,SE,142,0.0,4.0,96,0.00,,,0.20,44.0,meteohub,2013-01-11 17:42:00,
2013-01-11 11:47:00,34.9,33.8,28.90,SE,142,1.0,4.0,96,0.00,,,0.20,44.0,meteohub,2013-01-11 17:47:00,
2013-01-11 11:52:00,34.9,33.8,28.90,SE,142,0.0,4.0,96,0.00,,,0.20,40.0,meteohub,2013-01-11 17:52:00,
2013-01-11 11:57:00,34.9,33.8,28.90,SE,142,0.0,4.0,96,0.00,,,0.20,46.0,meteohub,2013-01-11 17:57:00,
2013-01-11 12:02:00,35.1,34.0,28.89,SE,142,1.0,4.0,96,0.00,,,0.20,58.0,meteohub,2013-01-11 18:02:00,
2013-01-11 12:07:00,35.1,33.8,28.89,SE,142,0.0,4.0,95,0.00,,,0.20,60.0,meteohub,2013-01-11 18:07:00,
2013-01-11 12:12:00,35.1,33.8,28.90,SE,142,1.0,4.0,95,0.00,,,0.20,72.0,meteohub,2013-01-11 18:12:00,
2013-01-11 12:17:00,35.1,33.8,28.89,SE,142,0.0,5.0,95,0.00,,,0.20,86.0,meteohub,2013-01-11 18:17:00,
2013-01-11 12:22:00,35.1,33.8,28.89,SE,142,3.0,5.0,95,0.00,,,0.20,70.0,meteohub,2013-01-11 18:22:00,
2013-01-11 12:27:00,35.2,34.0,28.89,South,178,1.0,5.0,95,0.00,,,0.20,58.0,meteohub,2013-01-11 18:27:00,
2013-01-11 12:32:00,35.1,33.8,28.89,South,179,2.0,5.0,95,0.00,,,0.20,46.0,meteohub,2013-01-11 18:32:00,
2013-01-11 12:37:00,35.1,33.8,28.89,South,179,0.0,5.0,95,0.00,,,0.20,37.0,meteohub,2013-01-11 18:37:00,
2013-01-11 12:42:00,35.1,33.8,28.87,East,88,3.0,5.0,95,0.00,,,0.20,53.0,meteohub,2013-01-11 18:42:00,
2013-01-11 12:47:00,35.1,33.8,28.87,East,100,0.0,5.0,95,0.00,,,0.20,49.0,meteohub,2013-01-11 18:47:00,
2013-01-11 12:52:00,35.1,34.0,28.87,East,99,1.0,5.0,96,0.00,,,0.23,63.0,meteohub,2013-01-11 18:52:00,
2013-01-11 12:57:00,34.9,33.8,28.87,East,100,1.0,5.0,96,0.05,,,0.23,76.0,meteohub,2013-01-11 18:57:00,
2013-01-11 13:02:00,35.1,34.0,28.86,East,100,1.0,5.0,96,0.05,,,0.23,77.0,meteohub,2013-01-11 19:02:00,
2013-01-11 13:07:00,35.1,34.0,28.86,East,100,0.0,5.0,96,0.05,,,0.23,72.0,meteohub,2013-01-11 19:07:00,
2013-01-11 13:12:00,35.1,34.0,28.86,East,100,0.0,5.0,96,0.05,,,0.25,65.0,meteohub,2013-01-11 19:12:00,
2013-01-11 13:17:00,35.2,34.2,28.87,East,100,4.0,5.0,96,0.05,,,0.25,42.0,meteohub,2013-01-11 19:17:00,
2013-01-11 13:22:00,35.2,34.2,28.87,East,100,2.0,5.0,96,0.05,,,0.25,37.0,meteohub,2013-01-11 19:22:00,
2013-01-11 13:27:00,35.1,34.0,28.88,SSE,161,0.0,5.0,96,0.05,,,0.25,26.0,meteohub,2013-01-11 19:27:00,
2013-01-11 13:32:00,35.1,34.0,28.88,SSE,166,0.0,5.0,96,0.05,,,0.25,26.0,meteohub,2013-01-11 19:32:00,
2013-01-11 13:37:00,35.1,34.0,28.87,SSE,166,0.0,5.0,96,0.04,,,0.25,28.0,meteohub,2013-01-11 19:37:00,
2013-01-11 13:42:00,35.1,34.0,28.87,SSE,153,3.0,5.0,96,0.04,,,0.25,30.0,meteohub,2013-01-11 19:42:00,
2013-01-11 13:47:00,35.1,34.0,28.87,SSE,153,0.0,5.0,96,0.04,,,0.25,28.0,meteohub,2013-01-11 19:47:00,
2013-01-11 13:52:00,35.1,34.0,28.87,SSE,153,0.0,5.0,96,0.04,,,0.26,21.0,meteohub,2013-01-11 19:52:00,
2013-01-11 13:57:00,35.2,34.2,28.87,SSE,153,0.0,3.0,96,0.02,,,0.26,21.0,meteohub,2013-01-11 19:57:00,
2013-01-11 14:02:00,35.1,33.8,28.87,SSE,153,1.0,3.0,95,0.02,,,0.26,21.0,meteohub,2013-01-11 20:02:00,
2013-01-11 14:07:00,35.1,34.0,28.88,SSE,153,0.0,3.0,96,0.02,,,0.26,19.0,meteohub,2013-01-11 20:07:00,
2013-01-11 14:12:00,35.1,34.0,28.88,SSE,153,0.0,3.0,96,0.01,,,0.26,16.0,meteohub,2013-01-11 20:12:00,
2013-01-11 14:17:00,35.2,34.2,28.88,SSE,153,0.0,2.0,96,0.01,,,0.26,18.0,meteohub,2013-01-11 20:17:00,
2013-01-11 14:22:00,35.1,33.8,28.88,SSE,153,2.0,2.0,95,0.01,,,0.26,16.0,meteohub,2013-01-11 20:22:00,
2013-01-11 14:27:00,35.1,34.0,28.87,ESE,121,2.0,2.0,96,0.01,,,0.26,19.0,meteohub,2013-01-11 20:27:00,
2013-01-11 14:32:00,34.9,33.8,28.87,East,85,4.0,5.0,96,0.02,,,0.26,26.0,meteohub,2013-01-11 20:32:00,
2013-01-11 14:37:00,34.9,33.8,28.87,ENE,76,4.0,5.0,96,0.02,,,0.26,25.0,meteohub,2013-01-11 20:37:00,
2013-01-11 14:42:00,34.7,33.6,28.86,East,92,2.0,5.0,96,0.02,,,0.28,23.0,meteohub,2013-01-11 20:42:00,
2013-01-11 14:47:00,34.5,33.4,28.86,ESE,105,5.0,5.0,96,0.02,,,0.28,19.0,meteohub,2013-01-11 20:47:00,
2013-01-11 14:52:00,34.5,33.4,28.86,East,86,0.0,6.0,96,0.02,,,0.28,19.0,meteohub,2013-01-11 20:52:00,
2013-01-11 14:57:00,34.5,33.4,28.86,East,84,3.0,6.0,96,0.02,,,0.30,18.0,meteohub,2013-01-11 20:57:00,
2013-01-11 15:02:00,34.5,33.4,28.86,ENE,72,3.0,5.0,96,0.04,,,0.30,19.0,meteohub,2013-01-11 21:02:00,
2013-01-11 15:07:00,34.5,33.4,28.85,East,86,5.0,5.0,96,0.04,,,0.30,25.0,meteohub,2013-01-11 21:07:00,
2013-01-11 15:12:00,34.5,33.4,28.86,East,95,3.0,5.0,96,0.05,,,0.30,23.0,meteohub,2013-01-11 21:12:00,
2013-01-11 15:17:00,34.5,33.4,28.86,SE,132,0.0,7.0,96,0.05,,,0.30,33.0,meteohub,2013-01-11 21:17:00,
2013-01-11 15:22:00,34.7,33.6,28.87,SE,140,0.0,7.0,96,0.05,,,0.32,26.0,meteohub,2013-01-11 21:22:00,
2013-01-11 15:27:00,34.7,33.6,28.88,SE,140,0.0,7.0,96,0.07,,,0.32,23.0,meteohub,2013-01-11 21:27:00,
2013-01-11 15:32:00,34.9,33.8,28.88,SE,140,0.0,7.0,96,0.07,,,0.32,19.0,meteohub,2013-01-11 21:32:00,
2013-01-11 15:37:00,34.9,33.8,28.87,SE,140,0.0,7.0,96,0.07,,,0.33,18.0,meteohub,2013-01-11 21:37:00,
2013-01-11 15:42:00,35.1,34.0,28.87,SE,140,0.0,2.0,96,0.06,,,0.33,14.0,meteohub,2013-01-11 21:42:00,
2013-01-11 15:47:00,34.9,33.8,28.87,SE,140,0.0,2.0,96,0.06,,,0.33,11.0,meteohub,2013-01-11 21:47:00,
2013-01-11 15:52:00,34.9,33.8,28.87,SE,140,0.0,2.0,96,0.04,,,0.33,11.0,meteohub,2013-01-11 21:52:00,
2013-01-11 15:57:00,34.7,33.6,28.87,SE,126,2.0,2.0,96,0.04,,,0.33,14.0,meteohub,2013-01-11 21:57:00,
2013-01-11 16:02:00,34.5,33.4,28.87,ESE,122,0.0,4.0,96,0.03,,,0.33,12.0,meteohub,2013-01-11 22:02:00,
2013-01-11 16:07:00,34.5,33.4,28.87,East,96,3.0,4.0,96,0.03,,,0.33,12.0,meteohub,2013-01-11 22:07:00,
2013-01-11 16:12:00,34.5,33.4,28.86,ENE,72,4.0,4.0,96,0.03,,,0.33,9.0,meteohub,2013-01-11 22:12:00,
2013-01-11 16:17:00,34.3,33.3,28.85,ESE,108,4.0,6.0,96,0.02,,,0.33,7.0,meteohub,2013-01-11 22:17:00,
2013-01-11 16:22:00,34.3,33.3,28.85,East,85,1.0,6.0,96,0.02,,,0.33,5.0,meteohub,2013-01-11 22:22:00,
2013-01-11 16:27:00,34.3,33.3,28.85,ESE,111,2.0,6.0,96,0.00,,,0.33,0.0,meteohub,2013-01-11 22:27:00,
2013-01-11 16:32:00,34.3,33.3,28.85,East,88,6.0,6.0,96,0.00,,,0.33,0.0,meteohub,2013-01-11 22:32:00,
2013-01-11 16:37:00,34.3,33.3,28.84,East,82,1.0,6.0,96,0.00,,,0.33,0.0,meteohub,2013-01-11 22:37:00,
2013-01-11 16:42:00,34.3,33.3,28.84,ENE,76,4.0,7.0,96,0.00,,,0.33,0.0,meteohub,2013-01-11 22:42:00,
2013-01-11 16:47:00,34.3,33.3,28.84,East,100,4.0,7.0,96,0.00,,,0.33,0.0,meteohub,2013-01-11 22:47:00,
2013-01-11 16:52:00,34.3,33.3,28.85,East,92,5.0,7.0,96,0.01,,,0.34,0.0,meteohub,2013-01-11 22:52:00,
2013-01-11 16:57:00,34.2,33.4,28.85,SE,130,2.0,7.0,97,0.01,,,0.34,0.0,meteohub,2013-01-11 22:57:00,
2013-01-11 17:02:00,34.2,33.4,28.85,SE,129,4.0,7.0,97,0.01,,,0.34,0.0,meteohub,2013-01-11 23:02:00,
2013-01-11 17:07:00,34.2,33.4,28.85,SE,126,4.0,7.0,97,0.01,,,0.34,0.0,meteohub,2013-01-11 23:07:00,
2013-01-11 17:12:00,34.3,33.6,28.85,SE,135,1.0,7.0,97,0.01,,,0.34,0.0,meteohub,2013-01-11 23:12:00,
2013-01-11 17:17:00,34.2,33.4,28.85,SE,129,2.0,7.0,97,0.01,,,0.34,0.0,meteohub,2013-01-11 23:17:00,
2013-01-11 17:22:00,34.3,33.6,28.84,SE,128,2.0,7.0,97,0.01,,,0.34,0.0,meteohub,2013-01-11 23:22:00,
2013-01-11 17:27:00,34.2,33.4,28.84,SE,128,1.0,7.0,97,0.01,,,0.34,0.0,meteohub,2013-01-11 23:27:00,
2013-01-11 17:32:00,34.2,33.1,28.84,ESE,115,2.0,5.0,96,0.01,,,0.34,0.0,meteohub,2013-01-11 23:32:00,
2013-01-11 17:37:00,34.2,33.1,28.84,SE,130,4.0,5.0,96,0.01,,,0.34,0.0,meteohub,2013-01-11 23:37:00,
2013-01-11 17:42:00,34.2,33.1,28.84,ESE,113,4.0,6.0,96,0.01,,,0.34,0.0,meteohub,2013-01-11 23:42:00,
2013-01-11 17:47:00,34.2,33.1,28.83,ENE,76,5.0,6.0,96,0.01,,,0.34,0.0,meteohub,2013-01-11 23:47:00,
2013-01-11 17:52:00,34.2,33.1,28.82,East,92,5.0,8.0,96,0.00,,,0.34,0.0,meteohub,2013-01-11 23:52:00,
2013-01-11 17:57:00,34.0,33.3,28.82,East,90,5.0,8.0,97,0.00,,,0.34,0.0,meteohub,2013-01-11 23:57:00,
2013-01-11 18:02:00,34.2,33.4,28.83,ESE,108,1.0,8.0,97,0.00,,,0.34,0.0,meteohub,2013-01-12 00:02:00,
2013-01-11 18:07:00,34.2,33.4,28.83,East,82,5.0,8.0,97,0.00,,,0.34,0.0,meteohub,2013-01-12 00:07:00,
2013-01-11 18:12:00,34.2,33.4,28.84,SE,144,6.0,8.0,97,0.00,,,0.00,0.0,meteohub,2013-01-12 00:12:00,
2013-01-11 18:17:00,34.2,33.4,28.83,SE,138,5.0,8.0,97,0.00,,,0.00,0.0,meteohub,2013-01-12 00:17:00,
2013-01-11 18:22:00,34.3,33.6,28.84,SSE,157,3.0,8.0,97,0.00,,,0.00,0.0,meteohub,2013-01-12 00:22:00,
2013-01-11 18:27:00,34.3,33.6,28.83,SSE,155,1.0,8.0,97,0.00,,,0.00,0.0,meteohub,2013-01-12 00:27:00,
2013-01-11 18:32:00,34.2,33.4,28.82,East,98,7.0,7.0,97,0.00,,,0.00,0.0,meteohub,2013-01-12 00:32:00,
2013-01-11 18:37:00,34.2,33.4,28.82,East,88,4.0,5.0,97,0.00,,,0.00,0.0,meteohub,2013-01-12 00:37:00,
2013-01-11 18:42:00,34.2,33.4,28.82,ESE,120,3.0,7.0,97,0.00,,,0.00,0.0,meteohub,2013-01-12 00:42:00,
2013-01-11 18:47:00,34.2,33.4,28.82,SE,132,2.0,7.0,97,0.00,,,0.00,0.0,meteohub,2013-01-12 00:47:00,
2013-01-11 18:52:00,34.2,33.4,28.82,ESE,116,2.0,7.0,97,0.00,,,0.00,0.0,meteohub,2013-01-12 00:52:00,
2013-01-11 18:57:00,34.3,33.6,28.83,ESE,116,1.0,7.0,97,0.00,,,0.00,0.0,meteohub,2013-01-12 00:57:00,
2013-01-11 19:02:00,34.2,33.4,28.81,ENE,69,5.0,5.0,97,0.00,,,0.00,0.0,meteohub,2013-01-12 01:02:00,
2013-01-11 19:07:00,34.2,33.4,28.82,SE,130,1.0,4.0,97,0.00,,,0.00,0.0,meteohub,2013-01-12 01:07:00,
2013-01-11 19:12:00,34.3,33.6,28.82,SE,126,0.0,4.0,97,0.00,,,0.00,0.0,meteohub,2013-01-12 01:12:00,
2013-01-11 19:17:00,34.2,33.4,28.81,SE,126,2.0,6.0,97,0.00,,,0.00,0.0,meteohub,2013-01-12 01:17:00,
2013-01-11 19:22:00,34.2,33.4,28.80,East,92,2.0,6.0,97,0.00,,,0.00,0.0,meteohub,2013-01-12 01:22:00,
2013-01-11 19:27:00,34.2,33.4,28.79,East,82,2.0,6.0,97,0.00,,,0.00,0.0,meteohub,2013-01-12 01:27:00,
2013-01-11 19:32:00,34.2,33.4,28.78,ESE,105,6.0,6.0,97,0.00,,,0.00,0.0,meteohub,2013-01-12 01:32:00,
2013-01-11 19:37:00,34.2,33.4,28.78,East,101,2.0,6.0,97,0.00,,,0.00,0.0,meteohub,2013-01-12 01:37:00,
2013-01-11 19:42:00,34.2,33.4,28.78,ENE,75,7.0,8.0,97,0.00,,,0.00,0.0,meteohub,2013-01-12 01:42:00,
2013-01-11 19:47:00,34.2,33.4,28.78,East,91,4.0,8.0,97,0.00,,,0.00,0.0,meteohub,2013-01-12 01:47:00,
2013-01-11 19:52:00,34.2,33.4,28.78,ESE,105,2.0,9.0,97,0.00,,,0.00,0.0,meteohub,2013-01-12 01:52:00,
2013-01-11 19:57:00,34.3,33.6,28.79,SSE,155,1.0,9.0,97,0.00,,,0.00,0.0,meteohub,2013-01-12 01:57:00,
2013-01-11 20:02:00,34.3,33.6,28.79,SE,133,3.0,9.0,97,0.00,,,0.00,0.0,meteohub,2013-01-12 02:02:00,
2013-01-11 20:07:00,34.3,33.6,28.79,SE,142,2.0,9.0,97,0.00,,,0.00,0.0,meteohub,2013-01-12 02:07:00,
2013-01-11 20:12:00,34.3,33.6,28.79,ESE,114,0.0,6.0,97,0.00,,,0.00,0.0,meteohub,2013-01-12 02:12:00,
2013-01-11 20:17:00,34.2,33.4,28.79,SE,126,2.0,6.0,97,0.00,,,0.00,0.0,meteohub,2013-01-12 02:17:00,
2013-01-11 20:22:00,34.3,33.6,28.79,SE,130,0.0,6.0,97,0.00,,,0.00,0.0,meteohub,2013-01-12 02:22:00,
2013-01-11 20:27:00,34.3,33.6,28.79,East,101,3.0,6.0,97,0.00,,,0.00,0.0,meteohub,2013-01-12 02:27:00,
2013-01-11 20:32:00,34.3,33.6,28.79,ESE,109,2.0,5.0,97,0.01,,,0.00,0.0,meteohub,2013-01-12 02:32:00,
2013-01-11 20:37:00,34.3,33.6,28.79,East,98,1.0,5.0,97,0.01,,,0.01,0.0,meteohub,2013-01-12 02:37:00,
2013-01-11 20:42:00,34.3,33.6,28.78,East,98,0.0,5.0,97,0.01,,,0.01,0.0,meteohub,2013-01-12 02:42:00,
2013-01-11 20:47:00,34.3,33.6,28.79,East,98,0.0,5.0,97,0.01,,,0.01,0.0,meteohub,2013-01-12 02:47:00,
2013-01-11 20:52:00,34.3,33.6,28.78,East,98,1.0,5.0,97,0.01,,,0.01,0.0,meteohub,2013-01-12 02:52:00,
2013-01-11 20:57:00,34.3,33.6,28.78,East,97,2.0,5.0,97,0.01,,,0.01,0.0,meteohub,2013-01-12 02:57:00,
2013-01-11 21:02:00,34.2,33.4,28.78,East,97,2.0,5.0,97,0.01,,,0.01,0.0,meteohub,2013-01-12 03:02:00,
2013-01-11 21:07:00,34.2,33.4,28.77,ENE,71,4.0,5.0,97,0.01,,,0.01,0.0,meteohub,2013-01-12 03:07:00,
2013-01-11 21:12:00,34.2,33.4,28.77,ENE,71,2.0,5.0,97,0.01,,,0.02,0.0,meteohub,2013-01-12 03:12:00,
2013-01-11 21:17:00,34.2,33.4,28.77,ENE,71,4.0,5.0,97,0.02,,,0.02,0.0,meteohub,2013-01-12 03:17:00,
2013-01-11 21:22:00,34.2,33.4,28.76,ENE,71,4.0,5.0,97,0.02,,,0.02,0.0,meteohub,2013-01-12 03:22:00,
2013-01-11 21:27:00,34.2,33.4,28.76,ENE,71,4.0,5.0,97,0.02,,,0.02,0.0,meteohub,2013-01-12 03:27:00,
2013-01-11 21:32:00,34.0,33.3,28.76,ENE,71,2.0,6.0,97,0.02,,,0.02,0.0,meteohub,2013-01-12 03:32:00,
2013-01-11 21:37:00,34.0,33.3,28.76,ENE,71,2.0,6.0,97,0.02,,,0.02,0.0,meteohub,2013-01-12 03:37:00,
2013-01-11 21:42:00,34.0,33.3,28.76,ENE,71,3.0,5.0,97,0.01,,,0.02,0.0,meteohub,2013-01-12 03:42:00,
2013-01-11 21:47:00,34.0,33.3,28.76,ENE,71,0.0,5.0,97,0.01,,,0.02,0.0,meteohub,2013-01-12 03:47:00,
2013-01-11 21:52:00,34.0,33.3,28.76,ENE,71,1.0,5.0,97,0.01,,,0.02,0.0,meteohub,2013-01-12 03:52:00,
2013-01-11 21:57:00,34.0,33.3,28.76,ENE,71,0.0,5.0,97,0.01,,,0.03,0.0,meteohub,2013-01-12 03:57:00,
2013-01-11 22:02:00,34.0,33.3,28.76,ENE,71,0.0,5.0,97,0.02,,,0.03,0.0,meteohub,2013-01-12 04:02:00,
2013-01-11 22:07:00,34.2,33.4,28.76,ENE,71,1.0,5.0,97,0.02,,,0.03,0.0,meteohub,2013-01-12 04:07:00,
2013-01-11 22:12:00,34.2,33.4,28.75,ESE,103,2.0,5.0,97,0.01,,,0.03,0.0,meteohub,2013-01-12 04:12:00,
2013-01-11 22:17:00,34.2,33.4,28.75,East,84,2.0,5.0,97,0.01,,,0.03,0.0,meteohub,2013-01-12 04:17:00,
2013-01-11 22:22:00,34.2,33.4,28.74,East,90,4.0,5.0,97,0.01,,,0.03,0.0,meteohub,2013-01-12 04:22:00,
2013-01-11 22:27:00,34.2,33.4,28.74,East,90,4.0,5.0,97,0.01,,,0.03,0.0,meteohub,2013-01-12 04:27:00,
2013-01-11 22:32:00,34.2,33.4,28.74,East,98,4.0,5.0,97,0.01,,,0.03,0.0,meteohub,2013-01-12 04:32:00,
2013-01-11 22:37:00,34.2,33.4,28.74,ESE,117,1.0,5.0,97,0.01,,,0.03,0.0,meteohub,2013-01-12 04:37:00,
2013-01-11 22:42:00,34.2,33.4,28.74,ESE,109,1.0,5.0,97,0.01,,,0.03,0.0,meteohub,2013-01-12 04:42:00,
2013-01-11 22:47:00,34.2,33.4,28.74,ESE,106,1.0,5.0,97,0.01,,,0.04,0.0,meteohub,2013-01-12 04:47:00,
2013-01-11 22:52:00,34.2,33.4,28.74,ESE,108,0.0,5.0,97,0.02,,,0.04,0.0,meteohub,2013-01-12 04:52:00,
2013-01-11 22:57:00,34.2,33.4,28.74,ESE,108,0.0,5.0,97,0.02,,,0.04,0.0,meteohub,2013-01-12 04:57:00,
2013-01-11 23:01:00,34.2,33.4,28.73,ESE,107,2.0,4.0,97,0.01,,,0.04,0.0,meteohub,2013-01-12 05:01:00,
2013-01-11 23:02:00,34.2,33.4,28.73,ESE,107,2.0,4.0,97,0.01,,,0.04,0.0,meteohub,2013-01-12 05:02:00,
2013-01-11 23:03:00,34.2,33.4,28.73,ESE,107,2.0,4.0,97,0.01,,,0.04,0.0,meteohub,2013-01-12 05:03:00,
2013-01-11 23:08:00,34.2,33.4,28.73,ENE,77,5.0,5.0,97,0.01,,,0.04,0.0,meteohub,2013-01-12 05:08:00,
2013-01-11 23:13:00,34.2,33.4,28.73,NE,53,5.0,5.0,97,0.01,,,0.04,0.0,meteohub,2013-01-12 05:13:00,
2013-01-11 23:18:00,34.0,33.3,28.73,NE,51,5.0,5.0,97,0.01,,,0.04,0.0,meteohub,2013-01-12 05:18:00,
2013-01-11 23:23:00,34.0,33.3,28.73,NE,40,8.0,8.0,97,0.01,,,0.04,0.0,meteohub,2013-01-12 05:23:00,
2013-01-11 23:28:00,33.1,32.4,28.73,NE,43,10.0,11.0,97,0.01,,,0.04,0.0,meteohub,2013-01-12 05:28:00,
2013-01-11 23:33:00,31.6,30.6,28.73,NE,55,8.0,11.0,96,0.01,,,0.04,0.0,meteohub,2013-01-12 05:33:00,
2013-01-11 23:38:00,31.5,30.7,28.72,NNE,17,10.0,11.0,97,0.01,,,0.04,0.0,meteohub,2013-01-12 05:38:00,
2013-01-11 23:43:00,30.9,30.2,28.72,NE,34,9.0,15.0,97,0.01,,,0.04,0.0,meteohub,2013-01-12 05:43:00,
2013-01-11 23:48:00,30.7,30.0,28.72,NNE,30,10.0,15.0,97,0.01,,,0.04,0.0,meteohub,2013-01-12 05:48:00,
2013-01-11 23:53:00,30.4,29.7,28.71,NE,37,14.0,15.0,97,0.00,,,0.04,0.0,meteohub,2013-01-12 05:53:00,
2013-01-11 23:58:00,29.7,28.6,28.71,NE,35,12.0,15.0,96,0.00,,,0.04,0.0,meteohub,2013-01-12 05:58:00,